Вернуться в каталог

STARLINK-30191

АктивенСвязьVLEO
NORAD 57413·PAYLOAD·🇺🇸 United States

Запущен Jul 20, 2023 с Vandenberg Space Force Base

Loading…

Ближайшие Пролёты (ближайшие 24 часа)

TLE

СвежийSource: CelesTrak SupGP

Эпоха: Sep 15, 2026, 01:41 UTC

1 57413C 23102K   26258.07062500  .00287670  00000+0  63051-2 0  2585
2 57413  43.0014 194.6895 0001574 287.3249 275.4283 15.43090261    11

Отслеживайте STARLINK-30191 в реальном времени с AllMySat

Download on the App Store